Location: Allen Lane School
(37.8198°N, 89.7382°W)
Time: 18:57:44
(UTC+00:00)

Cosmos 44 Rocket - Pass Details

Date: 08 December 2021
Orbit: 648 x 742 km, 65.1° (Epoch: 17 January)

Event Time Altitude Azimuth Distance (km) Brightness Sun altitude
Rises 23:06:26 0° 339° (NNW) 3,091 6.6 -5.5°
Reaches altitude 10° 23:09:07 10° 351° (N) 2,152 5.7 -6.0°
Maximum altitude 23:13:18 28° 50° (NE) 1,282 4.2 -6.8°
Drops below altitude 10° 23:17:22 10° 109° (ESE) 2,091 5.3 -7.5°
Sets 23:19:56 0° 121° (ESE) 2,987 6.2 -8.0°
